Regional Weather Roundup
Issued by NWS

Home | Current Version | Previous Version | Graphics & Text | Print | Product List | Glossary On
Versions: 1 2 3 4 5 6 7 8 9 10 11 12 13 14 15 16 17 18 19 20 21 22 23 24 25 26 27 28 29 30 31 32 33 34 35 36 37 38 39 40 41 42 43 44 45 46 47 48 49 50
000
ASUS45 KCYS 311710
RWRWY

WYOMING REGIONAL WEATHER ROUNDUP
NATIONAL WEATHER SERVICE CHEYENNE WY
1000 AM MST SAT JAN 31 2015

NOTE:  "FAIR" INDICATES FEW OR NO CLOUDS BELOW 12,000 FEET
WITH NO SIGNIFICANT WEATHER AND/OR OBSTRUCTIONS TO VISIBILITY.

WYZ001-311800-
YELLOWSTONE NATIONAL PARK

CITY           SKY/WX    TMP DP  RH WIND       PRES   REMARKS
LK YELLOWSTONE   N/A     -5  -7  91 CALM      30.05R
W YELLOWSTONE  NOT AVBL

$$
WYZ002>013-054>058-071-098>099-311800-
NORTHERN WYOMING

CITY           SKY/WX    TMP DP  RH WIND       PRES   REMARKS
JACKSON        SUNNY      9   5  85 CALM      30.04F
CODY           FAIR      34  18  51 S3        29.94R
GREYBULL       FOG       27  25  92 CALM      29.96S VSB<1/4
WORLAND        HAZE      24  18  77 E3        29.97R VSB<1/4
SHERIDAN       FAIR      34  23  64 S3        29.93F
BUFFALO        FAIR      37  18  46 N15       29.89F WCI  28
GILLETTE       FAIR      37  24  59 S15       29.89F WCI  28
HULETT           N/A     32  27  80 N5        29.91  WCI  27
NEWCASTLE      FAIR      32  25  74 SE5       29.95S WCI  27

$$
WYZ014>020-022>026-101>103-311800-
CENTRAL WYOMING

CITY           SKY/WX    TMP DP  RH WIND       PRES   REMARKS
BIG PINEY      FAIR      23  20  88 CALM      29.95S
PINEDALE       FAIR      23   9  54 NW12      29.95S WCI  12
DUBOIS         FAIR      32   1  27 NW6       29.90S WCI  26
LANDER         FAIR      26  20  77 NW7       29.89R WCI  18
RIVERTON       FAIR      28  26  92 NE3       29.90S
CASPER         FAIR      37  22  54 SW15      29.87F WCI  28
DOUGLAS        PTSUNNY   33  26  75 CALM      29.91F

$$
WYZ021-027>030-104>119-311800-
SOUTHERN WYOMING

CITY           SKY/WX    TMP DP  RH WIND       PRES   REMARKS
EVANSTON       PTSUNNY   30  27  88 SW3       30.00S
KEMMERER       CLOUDY    30  28  93 W14       29.98S WCI  20
FORT BRIDGER   FAIR      31  30  96 W12       30.01S WCI  21
ROCK SPRINGS   FAIR      29  26  89 W15       29.96S WCI  18
DIXON          FLURRIES  32  30  92 W7        29.95S WCI  26
RAWLINS        CLOUDY    32  24  72 SW9       29.91S WCI  24
SARATOGA       LGT SNOW  30  28  93 NW7       29.92S WCI  23
LARAMIE        CLOUDY    29  25  85 N5        29.86F WCI  24
CHEYENNE       CLOUDY    31  25  78 N7        29.87F WCI  24
TORRINGTON     PTSUNNY   36  24  62 CALM      29.92F
PINE BLUFFS    FLURRIES  32  28  86 N9        29.90F WCI  24

$$



USA.gov is the U.S. government's official web portal to all federal, state and local government web resources and services.